Aviation Digital Data Service (ADDS)

Output produced by METARs form (1826 UTC 22 November 2017)
found at http://www.aviationweather.gov/adds/metars/
 
WAAA 221800Z VRB01KT 8000 FEW020 24/21 Q1006 NOSIG
TAF WAAA 221700Z 2218/2324 10004KT 8000 SCT019 
     BECMG 2301/2303 31010KT 9000 SCT020 
     TEMPO 2306/2310 5000 RA FEW018CB 
     BECMG 2311/2313 00000KT 8000
       
WABB 221800Z 00000KT 9999 SCT018 26/25 Q1005
TAF WABB 221700Z 2218/2400 00000KT 9999 SCT018 
     TEMPO 2218/2223 6000 RA FEW017CB BKN018 
     BECMG 2300/2301 31007KT
       
WADD 221800Z 03006KT 9999 FEW017 26/25 Q1005 NOSIG
TAF WADD 221700Z 2218/2318 VRB05KT 9999 SCT016 
     TEMPO 2306/2310 5000 TSRA FEW015CB BKN015
       
WADL 221800Z AUTO 00000KT 3800 NCD 25/24 Q1006
TAF WADL 221700Z 2218/2318 00000KT 7000 SCT016 
     BECMG 2223/2301 27015KT 
     TEMPO 2308/2312 3000 TSRA FEW015CB 
     BECMG 2312/2315 25005KT
       
WAHS 221600Z 13003KT 6000 FEW014 25/25 Q1007 NOSIG
WAJJ 221700Z 00000KT 8000 -RA FEW009 25/23 Q1005 BECMG NSW
WALL 221800Z 29002KT 9000 FEW018CB SCT020 26/24Q1006 RMK CB TO S
TAF WALL 221700Z 2218/2324 33005KT 9000 FEW020 
     BECMG 2222/2224 9999 SCT018
       
WAMM 221800Z 00000KT 9000 FEW021 24/23 Q1006 NOSIG
TAF WAMM 221700Z 2218/2324 04002KT 9999 FEW022 
     PROB30 
     TEMPO 2218/2222 7000 -RA SCT018 
     BECMG 2223/2301 29007KT 
     TEMPO 2304/2308 17005KT 5000 TSRA FEW017CB SCT018
       
WAOO 221800Z AUTO 02007KT 9999 BKN002 OVC015 26/25 Q1006
TAF WAOO 221700Z 2218/2318 00000KT 9000 SCT018 
     PROB40 
     TEMPO 2218/2221 7000 RA 
     BECMG 2223/2224 06006KT 
     BECMG 2309/2310 18005KT
       
WAPP 221800Z 34007KT 9999 SCT018 24/23 Q1004 NOSIG
TAF WAPP 221700Z 2218/2318 34008KT 9999 BKN017 
     PROB40 
     TEMPO 2220/2223 6000 -RA
       
WAQQ 221730Z 00000KT 8000 FEW015 25/24 Q1007
TAF WAQQ 221700Z 2218/2306 00000KT 8000 SCT015 
     PROB40 
     TEMPO 2223/2302 6000 -RA FEW015CB SCT015
       
TAF WARR 221700Z 2218/2318 26005KT 4000 HZ FEW020 
     BECMG 2300/2302 28010KT 8000 NSW SCT020 
     TEMPO 2308/2312 4000 TSRA RA SCT018CB
       
WATT 221500Z 18002KT 8000 FEW017CB SCT017 26/26 Q1007 NOSIG RMK CB TO W AND NW
TAF WATT 221700Z 2218/2318 00000KT 8000 SCT017 
     BECMG 2221/2222 27004KT 9000 BKN018 
     TEMPO 2403/2406 9999 TS FEW016CB BKN016
       
WIBB 221800Z 31009KT 8000 SCT014 27/25 Q1006
TAF WIBB 221700Z 2218/2318 00000KT 8000 FEW015 
     PROB30 
     TEMPO 2219/2222 33015KT 4000 TSRA FEW015CB BKN015
       
WIDD 221800Z 00000KT 9999 SCT014 27/25 Q1008 NOSIG
TAF WIDD 221100Z 2212/2312 04005KT 9000 SCT014 
     BECMG 2213/2215 00000KT
       
WIEE 221800Z AUTO 08004KT 9999 SCT050 BKN080 OVC120 25/24 Q1008
TAF WIEE 221700Z 2218/2318 03004KT 8000 SCT018 
     TEMPO 2221/2223 3000 BKN017 
     BECMG 2300/2302 25006KT 9000 SCT020
       
TAF WIHH 221700Z 2218/2318 20004KT 5000 HZ FEW022 
     BECMG 2302/2304 32008KT 7000 SCT020 
     TEMPO 2307/2311 27012KT 3000 -TSRA FEW018CB BKN017
       
WIII 221800Z 22003KT 5000 HZ FEW020 27/24 Q1006 NOSIG
TAF WIII 221700Z 2218/2324 22004KT 4000 BR FEW020 
     FM230300 26010KT 9999 NSW SCT022
       
WIMM 221800Z 26005KT 7000 SCT018 26/25 Q1007
TAF WIMM 221700Z 2218/2318 24005KT 4500 HZ SCT018 
     TEMPO 2223/2303 VRB07KT 3500 -TSRA FEW016CB SCT017 
     BECMG 2303/2305 03010KT 9000 NSW 
     BECMG 2311/2313 23006KT 4500 HZ FEW017CB SCT018
       
WIOO 221500Z 00000KT 6000 FEW011CB BKN012 25/24 Q1007 NOSIG
WIPP 221700Z 03002KT 8000 FEW012 27/25 Q1007
TAF WIPP 221700Z 2218/2318 36005KT 9999 SCT012 
     TEMPO 2221/2301 3000 BR 
     TEMPO 2306/2310 3000 TSRA BKN012 FEW015CB
       
TAF WITT 221700Z 2218/2318 15003KT 9999 SCT018 
     BECMG 2218/2220 00000KT 9000 SCT018 
     PROB30 
     TEMPO 2305/2308 30007KT 3000 -TSRA FEW015CB SCT018
       
WAAA 221800Z VRB01KT 8000 FEW020 24/21 Q1006 NOSIG
TAF WAAA 221700Z 2218/2324 10004KT 8000 SCT019 
     BECMG 2301/2303 31010KT 9000 SCT020 
     TEMPO 2306/2310 5000 RA FEW018CB 
     BECMG 2311/2313 00000KT 8000
       
WABB 221800Z 00000KT 9999 SCT018 26/25 Q1005
TAF WABB 221700Z 2218/2400 00000KT 9999 SCT018 
     TEMPO 2218/2223 6000 RA FEW017CB BKN018 
     BECMG 2300/2301 31007KT
       
WADD 221800Z 03006KT 9999 FEW017 26/25 Q1005 NOSIG
TAF WADD 221700Z 2218/2318 VRB05KT 9999 SCT016 
     TEMPO 2306/2310 5000 TSRA FEW015CB BKN015
       
WADL 221800Z AUTO 00000KT 3800 NCD 25/24 Q1006
TAF WADL 221700Z 2218/2318 00000KT 7000 SCT016 
     BECMG 2223/2301 27015KT 
     TEMPO 2308/2312 3000 TSRA FEW015CB 
     BECMG 2312/2315 25005KT
       
WAHS 221600Z 13003KT 6000 FEW014 25/25 Q1007 NOSIG
WAJJ 221700Z 00000KT 8000 -RA FEW009 25/23 Q1005 BECMG NSW
WALL 221800Z 29002KT 9000 FEW018CB SCT020 26/24Q1006 RMK CB TO S
TAF WALL 221700Z 2218/2324 33005KT 9000 FEW020 
     BECMG 2222/2224 9999 SCT018
       
WAMM 221800Z 00000KT 9000 FEW021 24/23 Q1006 NOSIG
TAF WAMM 221700Z 2218/2324 04002KT 9999 FEW022 
     PROB30 
     TEMPO 2218/2222 7000 -RA SCT018 
     BECMG 2223/2301 29007KT 
     TEMPO 2304/2308 17005KT 5000 TSRA FEW017CB SCT018
       
WAOO 221800Z AUTO 02007KT 9999 BKN002 OVC015 26/25 Q1006
TAF WAOO 221700Z 2218/2318 00000KT 9000 SCT018 
     PROB40 
     TEMPO 2218/2221 7000 RA 
     BECMG 2223/2224 06006KT 
     BECMG 2309/2310 18005KT
       
WAPP 221800Z 34007KT 9999 SCT018 24/23 Q1004 NOSIG
TAF WAPP 221700Z 2218/2318 34008KT 9999 BKN017 
     PROB40 
     TEMPO 2220/2223 6000 -RA
       
WAQQ 221730Z 00000KT 8000 FEW015 25/24 Q1007
TAF WAQQ 221700Z 2218/2306 00000KT 8000 SCT015 
     PROB40 
     TEMPO 2223/2302 6000 -RA FEW015CB SCT015
       
TAF WARR 221700Z 2218/2318 26005KT 4000 HZ FEW020 
     BECMG 2300/2302 28010KT 8000 NSW SCT020 
     TEMPO 2308/2312 4000 TSRA RA SCT018CB
       
WATT 221500Z 18002KT 8000 FEW017CB SCT017 26/26 Q1007 NOSIG RMK CB TO W AND NW
TAF WATT 221700Z 2218/2318 00000KT 8000 SCT017 
     BECMG 2221/2222 27004KT 9000 BKN018 
     TEMPO 2403/2406 9999 TS FEW016CB BKN016
       
WABB 221800Z 00000KT 9999 SCT018 26/25 Q1005
TAF WABB 221700Z 2218/2400 00000KT 9999 SCT018 
     TEMPO 2218/2223 6000 RA FEW017CB BKN018 
     BECMG 2300/2301 31007KT
       
WAAA 221800Z VRB01KT 8000 FEW020 24/21 Q1006 NOSIG
TAF WAAA 221700Z 2218/2324 10004KT 8000 SCT019 
     BECMG 2301/2303 31010KT 9000 SCT020 
     TEMPO 2306/2310 5000 RA FEW018CB 
     BECMG 2311/2313 00000KT 8000
       
WAAA 221800Z VRB01KT 8000 FEW020 24/21 Q1006 NOSIG
TAF WAAA 221700Z 2218/2324 10004KT 8000 SCT019 
     BECMG 2301/2303 31010KT 9000 SCT020 
     TEMPO 2306/2310 5000 RA FEW018CB 
     BECMG 2311/2313 00000KT 8000
       
WABB 221800Z 00000KT 9999 SCT018 26/25 Q1005
TAF WABB 221700Z 2218/2400 00000KT 9999 SCT018 
     TEMPO 2218/2223 6000 RA FEW017CB BKN018 
     BECMG 2300/2301 31007KT
       
WADD 221800Z 03006KT 9999 FEW017 26/25 Q1005 NOSIG
TAF WADD 221700Z 2218/2318 VRB05KT 9999 SCT016 
     TEMPO 2306/2310 5000 TSRA FEW015CB BKN015
       
WADL 221800Z AUTO 00000KT 3800 NCD 25/24 Q1006
TAF WADL 221700Z 2218/2318 00000KT 7000 SCT016 
     BECMG 2223/2301 27015KT 
     TEMPO 2308/2312 3000 TSRA FEW015CB 
     BECMG 2312/2315 25005KT
       
WAHS 221600Z 13003KT 6000 FEW014 25/25 Q1007 NOSIG
WAJJ 221700Z 00000KT 8000 -RA FEW009 25/23 Q1005 BECMG NSW
WALL 221800Z 29002KT 9000 FEW018CB SCT020 26/24Q1006 RMK CB TO S
TAF WALL 221700Z 2218/2324 33005KT 9000 FEW020 
     BECMG 2222/2224 9999 SCT018
       
WAMM 221800Z 00000KT 9000 FEW021 24/23 Q1006 NOSIG
TAF WAMM 221700Z 2218/2324 04002KT 9999 FEW022 
     PROB30 
     TEMPO 2218/2222 7000 -RA SCT018 
     BECMG 2223/2301 29007KT 
     TEMPO 2304/2308 17005KT 5000 TSRA FEW017CB SCT018
       
WAOO 221800Z AUTO 02007KT 9999 BKN002 OVC015 26/25 Q1006
TAF WAOO 221700Z 2218/2318 00000KT 9000 SCT018 
     PROB40 
     TEMPO 2218/2221 7000 RA 
     BECMG 2223/2224 06006KT 
     BECMG 2309/2310 18005KT
       
WAPP 221800Z 34007KT 9999 SCT018 24/23 Q1004 NOSIG
TAF WAPP 221700Z 2218/2318 34008KT 9999 BKN017 
     PROB40 
     TEMPO 2220/2223 6000 -RA
       
WAQQ 221730Z 00000KT 8000 FEW015 25/24 Q1007
TAF WAQQ 221700Z 2218/2306 00000KT 8000 SCT015 
     PROB40 
     TEMPO 2223/2302 6000 -RA FEW015CB SCT015
       
TAF WARR 221700Z 2218/2318 26005KT 4000 HZ FEW020 
     BECMG 2300/2302 28010KT 8000 NSW SCT020 
     TEMPO 2308/2312 4000 TSRA RA SCT018CB
       
WATT 221500Z 18002KT 8000 FEW017CB SCT017 26/26 Q1007 NOSIG RMK CB TO W AND NW
TAF WATT 221700Z 2218/2318 00000KT 8000 SCT017 
     BECMG 2221/2222 27004KT 9000 BKN018 
     TEMPO 2403/2406 9999 TS FEW016CB BKN016
       
WIBB 221800Z 31009KT 8000 SCT014 27/25 Q1006
TAF WIBB 221700Z 2218/2318 00000KT 8000 FEW015 
     PROB30 
     TEMPO 2219/2222 33015KT 4000 TSRA FEW015CB BKN015
       
WIDD 221800Z 00000KT 9999 SCT014 27/25 Q1008 NOSIG
TAF WIDD 221100Z 2212/2312 04005KT 9000 SCT014 
     BECMG 2213/2215 00000KT
       
WIEE 221800Z AUTO 08004KT 9999 SCT050 BKN080 OVC120 25/24 Q1008
TAF WIEE 221700Z 2218/2318 03004KT 8000 SCT018 
     TEMPO 2221/2223 3000 BKN017 
     BECMG 2300/2302 25006KT 9000 SCT020
       
TAF WIHH 221700Z 2218/2318 20004KT 5000 HZ FEW022 
     BECMG 2302/2304 32008KT 7000 SCT020 
     TEMPO 2307/2311 27012KT 3000 -TSRA FEW018CB BKN017
       
WIII 221800Z 22003KT 5000 HZ FEW020 27/24 Q1006 NOSIG
TAF WIII 221700Z 2218/2324 22004KT 4000 BR FEW020 
     FM230300 26010KT 9999 NSW SCT022
       
WIMM 221800Z 26005KT 7000 SCT018 26/25 Q1007
TAF WIMM 221700Z 2218/2318 24005KT 4500 HZ SCT018 
     TEMPO 2223/2303 VRB07KT 3500 -TSRA FEW016CB SCT017 
     BECMG 2303/2305 03010KT 9000 NSW 
     BECMG 2311/2313 23006KT 4500 HZ FEW017CB SCT018
       
WIOO 221500Z 00000KT 6000 FEW011CB BKN012 25/24 Q1007 NOSIG
WIPP 221700Z 03002KT 8000 FEW012 27/25 Q1007
TAF WIPP 221700Z 2218/2318 36005KT 9999 SCT012 
     TEMPO 2221/2301 3000 BR 
     TEMPO 2306/2310 3000 TSRA BKN012 FEW015CB
       
TAF WITT 221700Z 2218/2318 15003KT 9999 SCT018 
     BECMG 2218/2220 00000KT 9000 SCT018 
     PROB30 
     TEMPO 2305/2308 30007KT 3000 -TSRA FEW015CB SCT018
       
WAPP 221800Z 34007KT 9999 SCT018 24/23 Q1004 NOSIG
TAF WAPP 221700Z 2218/2318 34008KT 9999 BKN017 
     PROB40 
     TEMPO 2220/2223 6000 -RA
       
WIMM 221800Z 26005KT 7000 SCT018 26/25 Q1007
TAF WIMM 221700Z 2218/2318 24005KT 4500 HZ SCT018 
     TEMPO 2223/2303 VRB07KT 3500 -TSRA FEW016CB SCT017 
     BECMG 2303/2305 03010KT 9000 NSW 
     BECMG 2311/2313 23006KT 4500 HZ FEW017CB SCT018
       
WIBB 221800Z 31009KT 8000 SCT014 27/25 Q1006
TAF WIBB 221700Z 2218/2318 00000KT 8000 FEW015 
     PROB30 
     TEMPO 2219/2222 33015KT 4000 TSRA FEW015CB BKN015
       
WIDD 221800Z 00000KT 9999 SCT014 27/25 Q1008 NOSIG
TAF WIDD 221100Z 2212/2312 04005KT 9000 SCT014 
     BECMG 2213/2215 00000KT
       
WIEE 221800Z AUTO 08004KT 9999 SCT050 BKN080 OVC120 25/24 Q1008
TAF WIEE 221700Z 2218/2318 03004KT 8000 SCT018 
     TEMPO 2221/2223 3000 BKN017 
     BECMG 2300/2302 25006KT 9000 SCT020
       
TAF WIHH 221700Z 2218/2318 20004KT 5000 HZ FEW022 
     BECMG 2302/2304 32008KT 7000 SCT020 
     TEMPO 2307/2311 27012KT 3000 -TSRA FEW018CB BKN017
       
WIII 221800Z 22003KT 5000 HZ FEW020 27/24 Q1006 NOSIG
TAF WIII 221700Z 2218/2324 22004KT 4000 BR FEW020 
     FM230300 26010KT 9999 NSW SCT022
       
WIMM 221800Z 26005KT 7000 SCT018 26/25 Q1007
TAF WIMM 221700Z 2218/2318 24005KT 4500 HZ SCT018 
     TEMPO 2223/2303 VRB07KT 3500 -TSRA FEW016CB SCT017 
     BECMG 2303/2305 03010KT 9000 NSW 
     BECMG 2311/2313 23006KT 4500 HZ FEW017CB SCT018
       
WIOO 221500Z 00000KT 6000 FEW011CB BKN012 25/24 Q1007 NOSIG
WIPP 221700Z 03002KT 8000 FEW012 27/25 Q1007
TAF WIPP 221700Z 2218/2318 36005KT 9999 SCT012 
     TEMPO 2221/2301 3000 BR 
     TEMPO 2306/2310 3000 TSRA BKN012 FEW015CB
       
TAF WITT 221700Z 2218/2318 15003KT 9999 SCT018 
     BECMG 2218/2220 00000KT 9000 SCT018 
     PROB30 
     TEMPO 2305/2308 30007KT 3000 -TSRA FEW015CB SCT018
       
WAMM 221800Z 00000KT 9000 FEW021 24/23 Q1006 NOSIG
TAF WAMM 221700Z 2218/2324 04002KT 9999 FEW022 
     PROB30 
     TEMPO 2218/2222 7000 -RA SCT018 
     BECMG 2223/2301 29007KT 
     TEMPO 2304/2308 17005KT 5000 TSRA FEW017CB SCT018
       
WAJJ 221700Z 00000KT 8000 -RA FEW009 25/23 Q1005 BECMG NSW
WIII 221800Z 22003KT 5000 HZ FEW020 27/24 Q1006 NOSIG
TAF WIII 221700Z 2218/2324 22004KT 4000 BR FEW020 
     FM230300 26010KT 9999 NSW SCT022
       
TAF WITT 221700Z 2218/2318 15003KT 9999 SCT018 
     BECMG 2218/2220 00000KT 9000 SCT018 
     PROB30 
     TEMPO 2305/2308 30007KT 3000 -TSRA FEW015CB SCT018
       
WIPP 221700Z 03002KT 8000 FEW012 27/25 Q1007
TAF WIPP 221700Z 2218/2318 36005KT 9999 SCT012 
     TEMPO 2221/2301 3000 BR 
     TEMPO 2306/2310 3000 TSRA BKN012 FEW015CB
       
WIBB 221800Z 31009KT 8000 SCT014 27/25 Q1006
TAF WIBB 221700Z 2218/2318 00000KT 8000 FEW015 
     PROB30 
     TEMPO 2219/2222 33015KT 4000 TSRA FEW015CB BKN015
       
WIOO 221500Z 00000KT 6000 FEW011CB BKN012 25/24 Q1007 NOSIG